User: anonymous   Login
Location: Copper Breaks State Park
(34.1132°N, 99.7492°W)
Time: 07:07:38
(UTC-05:00)
Language:

SL-16 R/B - Orbit

View from above orbital plane
View from above orbital plane
View from above satellite
View from above satellite

Ground track
Ground track

The orbit data is extracted from the following two-line orbital elements,

1 27006U 01056F   16210.05590052 -.00000005  00000-0  42051-4 0  9995
2 27006  99.2648 356.0450 0015526  76.0809  31.0653 13.70970263732083
Epoch (UTC): 28 July 2016 01:20:29
Eccentricity: 0.0015526
inclination: 99.2648°
perigee height: 984 km
apogee height: 1007 km
right ascension of ascending node: 356.0450°
argument of perigee: 76.0809°
revolutions per day: 13.70970263
mean anomaly at epoch: 31.0653°
orbit number at epoch: 73208

The dashed part of the orbit path shows where the satellite is in the earth's shadow,  

DLR